Location: Christian Reformed Church
(43.0975°N, 93.8113°W)
Time: 15:29:28
(UTC+00:00)

Meteor 1-25 Rocket - Pass Details

Date: 16 March 2026
Orbit: 836 x 889 km, 81.2° (Epoch: 15 April)

Event Time Altitude Azimuth Distance (km) Brightness Sun altitude
Rises 10:04:30 0° 3° (N) 3,472 7.7 -25.9°
Reaches altitude 10° 10:07:41 10° 20° (NNE) 2,539 7.2 -25.4°
Maximum altitude 10:11:45 19° 65° (ENE) 1,957 6.9 -24.7°
Drops below altitude 10° 10:15:50 10° 111° (ESE) 2,546 7.3 -24.0°
Sets 10:19:01 0° 128° (SE) 3,485 7.8 -23.5°
